Simultaneous Nadir Overpasses (SNOs) Predictions

Prediction of SNOs between GOES-17 and METOP-C Satellite Orbit:

Table of predicted SNOs for the next 14.0 days since TLE Epoch: 9/3/2022
Index Date Time (GOES-17) GOES-17 Lat,Lon METOP-C Lat,Lon Distance(km) Time Diff (sec)
1 09/03/2022 06:55:32 0.05,-137.31 -0.89,-141.49 476.56 80
2 09/04/2022 06:37:31 0.04,-137.31 0.20,-136.49 92.75 80
3 09/05/2022 18:53:42 -0.05,-137.31 0.77,-141.06 427.69 80
4 09/06/2022 18:35:42 -0.04,-137.30 -0.32,-136.06 141.17 80
5 09/08/2022 06:52:01 0.05,-137.30 -0.72,-140.66 383.43 80
6 09/09/2022 06:34:02 0.05,-137.29 0.43,-135.67 185.21 80
7 09/10/2022 18:50:12 -0.05,-137.28 0.58,-140.23 335.62 80
8 09/11/2022 18:32:12 -0.05,-137.27 -0.52,-135.23 233.06 80
9 09/13/2022 06:48:31 0.05,-137.26 -0.54,-139.82 291.78 80
10 09/14/2022 06:30:31 0.05,-137.25 0.61,-134.83 276.53 80
11 09/15/2022 18:46:41 -0.05,-137.23 0.44,-139.38 245.09 80
12 09/16/2022 18:28:40 -0.04,-137.22 -0.66,-134.38 322.86 80
